Regional Weather Roundup
Issued by NWS

Home | Current Version | Previous Version | Graphics & Text | Print | Product List | Glossary Off
Versions: 1 2 3 4 5 6 7 8 9 10 11 12 13 14 15 16 17 18 19 20 21 22 23 24 25 26 27 28 29 30 31 32 33 34 35 36 37 38 39 40 41 42 43 44 45 46 47 48 49 50

000
ASUS43 KLSX 311959
RWRMO

WEATHER SUMMARY FOR MISSOURI
NATIONAL WEATHER SERVICE SPRINGFIELD MO
300 PM CDT FRI JUL 31 2015

NOTE: "FAIR" INDICATES FEW OR NO CLOUDS BELOW 12,000 FEET WITH NO
       SIGNIFICANT WEATHER AND/OR OBSTRUCTIONS TO VISIBILITY.
       CURRENT SKY AND/OR WEATHER CONDITIONS ARE NOT AVAILABLE FOR
       CHILLICOTHE AND FARMINGTON.

MOZ001>031-035>038-043-044-053-054-312100-
...NORTHERN AND WESTERN MISSOURI...

CITY           SKY/WX    TMP DP  RH WIND       PRES   REMARKS
KANSAS CTY INT MOSUNNY   87  67  51 W5        30.12F HX  90
KANSAS C DTWN  SUNNY     90  63  40 NW7       30.10F HX  91
LEE`S SUMMIT   SUNNY     90  60  36 VRB3      30.12F
ST JOSEPH      SUNNY     88  72  58 NW6       30.10F HX  94
CHILLICOTHE      N/A     89  69  51 W3        30.10F HX  93
KIRKSVILLE     SUNNY     87  63  44 W7        30.10F

$$
MOZ066>068-077>081-088>096-101>105-312100-
...SOUTHWEST MISSOURI...

CITY           SKY/WX    TMP DP  RH WIND       PRES   REMARKS
SPRINGFIELD    SUNNY     89  56  32 W8        30.13F
JOPLIN         SUNNY     91  63  39 VRB5      30.12F HX  92

$$
MOZ032>034-039>042-045>050-055>058-069>072-312100-
...CENTRAL MISSOURI...

CITY           SKY/WX    TMP DP  RH WIND       PRES   REMARKS
COLUMBIA       SUNNY     89  63  41 W8        30.10F HX  90
JEFFERSON CITY SUNNY     90  61  37 NW8       30.08F HX  90
ROLLA          SUNNY     89  56  32 W8        30.10F
SEDALIA        SUNNY     92  60  34 VRB6      30.11F HX  91
WHITEMAN AFB   SUNNY     91  56  30 W6        30.09F
WARRENSBURG    SUNNY     90  55  31 SW7       30.10F
OSAGE BEACH    SUNNY     90  61  37 W5        30.11F

$$
MOZ051-052-059>065-312100-
...EAST CENTRAL MISSOURI...

CITY           SKY/WX    TMP DP  RH WIND       PRES   REMARKS
ST LOUIS INTL  MOSUNNY   93  60  33 NW10G18   30.07F HX  93
SPIRIT OF STL  SUNNY     92  61  35 NW8       30.06F HX  92
ST CHARLES     SUNNY     92  58  31 NW13      30.05F HX  91

$$
MOZ072>076-082>087-097>100-106>115-312100-
...SOUTH CENTRAL AND SOUTHEAST MISSOURI...

CITY           SKY/WX    TMP DP  RH WIND       PRES   REMARKS
CAPE GIRARDEAU SUNNY     91  63  39 N8        30.05F HX  92
FARMINGTON     SUNNY     88  61  40 NW8       30.13F
POPLAR BLUFF   SUNNY     91  63  39 N6        30.06F HX  92
WEST PLAINS    SUNNY     89  56  32 NW7       30.14F

$$



USA.gov is the U.S. government's official web portal to all federal, state and local government web resources and services.